Showing default

INTELSAT 1-F1, 1317

Orbit data source: Space-Track

INTELSAT 1-F1, 1317 is a payload satellite owned by INTELSAT (US) in GEO that was launched on Tue, 06 Apr 1965 UTC via a THOR DELTA D launch vehicle from the Air Force Eastern Test Range (AFETR). Payload-class satellites include a variety of spacecraft equipped with specific instruments for various scientific and technological missions. These include communications satellites like Starlink; space stations such as the ISS; scientific satellites like the Hubble; Earth observation satellites from companies like Planet Labs, Umbra, and HawkEye 360; GPS; miniature CubeSats for education and research; and military/defense satellites.

Loading next visibility...
Identifier
1317, 1965-028A
Orbit
GEO
Country
Flag of UnknownUnknown / ITSO
Related business
Manufacturer
Hughes
Mission
Non-operational spacecraft
Bus & Motor
HS-303A, STARFINDER
Mass
68 kg wet, 30 kg dry
Launch date (UTC)
1965-04-06 (61 years ago)
Launch vehicle
THOR DELTA D
Launch site
Air Force Eastern Test Range (AFETR)
Object type
Payload
Rocket body
Debris
Shape & HBR
Unknown
Radar Cross Section
Medium (>0.1 m² and <1 m²)

Expand to show TLE details & history
Last TLE update: 1 day ago

TLE from 1 day ago
0 INTELSAT 1-F1
1  1317U 65028A   25353.22643058 -.00000250  00000-0  00000+0 0  9998
2  1317   6.7190  65.5696 0008284 157.8055 238.0210  1.00205086125373
Epoch: 2025-12-19T05:26Z
TLE epoch observation values (Epoch: 2025-12-19T05:26:03.602Z)
Latitude
3.94792°
Longitude
-68.46241°
Altitude
35,823.091 km
Speed
3.073 km/s
True Right ascension
06h 44m 29s
True Declination
3° 56' 38"
Sunlit
Object was in daylight at epoch
Visualization orbit readout
Latitude
Unknown
Longitude
Unknown
Altitude
Unknown
Speed
Unknown
Apparent Right ascension
Unknown
Apparent Declination
Unknown
Sunlit
N/A
Visualization observer readout
Local Sidereal Time
06:02:05
Azimuth
Unknown
Elevation
Unknown
Doppler factor
Unknown
Orbital elements
Apogee altitude
35,841.298 km
Perigee altitude
35,771.406 km
Semi-major axis
42,184.489 km
Eccentricity
0.00083
Inclination
6.719°
RAAN
65.5696°
Arg. of periapsis
157.8055°
True anomaly
237.94052°
Mean anomaly
238.021°
Eccentric anomaly
237.98076°
Mean motion
0.2505 °/min
Orbital period
1,437.11 mins
BSTAR
0
Loading maneuver chart data...
Computing Atmospheric mass density...
Loading historical data...
Loading historical data...
Loading historical data...
Loading historical data...
Loading historical data...
Loading historical data...
Loading historical data...
Other satellites on launch #28 in the year 1965 (1965-04-06 UTC)

Documentation

Showing up to 5 results
|